START_TIME,STEP,MOV.,H8,t_acc.,H43,t_acc.,M25,t_acc.,H9,t_acc.
1981-08-25 18:00:30.450 ,4,0,0.,12.0,0.,12.0,0.,12.0,0.,12.0
1981-08-25 18:00:42.450 ,4,0,0.,12.0,0.,12.0,0.,12.0,0.,12.0
1981-08-25 18:00:54.450 ,5,0,0.,12.0,0.,12.0,0.,12.0,0.,12.0
1981-08-25 18:01:06.450 ,5,0,0.,12.0,0.,12.0,0.,12.0,0.,12.0
1981-08-25 18:01:18.450 ,5,0,0.,12.0,0.,12.0,0.,12.0,0.,12.0
1981-08-25 18:01:30.450 ,5,0,0.,12.0,0.,12.0,0.,12.0,0.,12.0
1981-08-25 18:01:42.450 ,6,0,0.,12.0,0.,12.0,0.,12.0,0.,12.0
1981-08-25 18:01:54.450 ,6,0,0.,12.0,0.,12.0,0.,12.0,0.,12.0
1981-08-25 18:02:06.450 ,6,0,0.,12.0,0.,12.0,0.,12.0,0.,12.0
1981-08-25 18:02:18.450 ,6,0,0.,12.0,0.,12.0,0.,12.0,0.,12.0
1981-08-25 18:02:30.450 ,7,0,0.,12.0,0.,12.0,0.,12.0,0.,12.0
1981-08-25 18:02:42.450 ,7,0,0.,12.0,0.,12.0,0.,12.0,0.,12.0
1981-08-25 18:02:54.450 ,7,0,0.,12.0,0.,12.0,0.,12.0,0.,12.0
1981-08-25 18:03:06.450 ,7,0,0.,12.0,0.,12.0,0.,12.0,0.,12.0
1981-08-25 18:03:18.450 ,7,0,0.,12.0,0.,12.0,0.,12.0,0.,12.0
1981-08-25 18:03:30.450 ,7,0,0.,12.0,0.,12.0,0.,12.0,0.,12.0
1981-08-25 18:03:42.450 ,0,0,0.,12.0,0.,12.0,0.,12.0,0.,12.0
1981-08-25 18:03:54.450 ,0,0,0.,12.0,0.,12.0,0.,12.0,0.,12.0
1981-08-25 18:04:30.450 ,0,0,0.,12.0,0.,12.0,0.,12.0,0.,12.0
1981-08-25 18:04:42.450 ,0,0,0.,12.0,0.,12.0,0.,12.0,0.,12.0
1981-08-25 18:04:54.450 ,5,0,0.,12.0,0.,12.0,0.,12.0,0.,12.0
1981-08-25 18:05:06.450 ,5,0,0.,12.0,0.,12.0,0.,12.0,0.,12.0
1981-08-25 18:05:18.450 ,5,0,0.,12.0,0.,12.0,0.,12.0,0.,12.0
1981-08-25 18:05:30.450 ,5,0,0.,12.0,0.,12.0,0.,12.0,0.,12.0
1981-08-25 18:05:42.450 ,4,0,0.,12.0,0.,12.0,0.,12.0,0.,12.0
1981-08-25 18:05:54.450 ,4,0,0.,12.0,0.,12.0,0.,12.0,0.,12.0
1981-08-25 18:06:06.450 ,4,0,0.,12.0,0.,12.0,0.,12.0,0.,12.0
1981-08-25 18:06:18.450 ,4,0,0.,12.0,0.,12.0,0.,12.0,0.,12.0
1981-08-25 18:06:30.450 ,3,0,0.,12.0,0.,12.0,0.,12.0,0.,12.0
1981-08-25 18:06:42.450 ,3,0,0.,12.0,0.,12.0,0.,12.0,0.,12.0
1981-08-25 18:06:54.450 ,3,0,0.,12.0,0.,12.0,0.,12.0,0.,12.0
1981-08-25 18:07:06.450 ,3,0,0.,12.0,0.,12.0,0.,12.0,0.,12.0
1981-08-25 18:07:18.450 ,2,0,0.,12.0,0.,12.0,0.,12.0,0.,12.0
1981-08-25 18:07:30.450 ,2,0,0.,12.0,0.,12.0,0.,12.0,0.,12.0
1981-08-25 18:07:42.450 ,2,0,0.,12.0,0.,12.0,0.,12.0,0.,12.0
1981-08-25 18:07:54.450 ,2,0,0.,12.0,0.,12.0,0.,12.0,0.,12.0
1981-08-25 18:08:06.450 ,1,0,0.,12.0,0.,12.0,0.,12.0,0.,12.0
1981-08-25 18:08:18.450 ,1,0,0.,12.0,0.,12.0,0.,12.0,0.,12.0
1981-08-25 18:08:30.450 ,1,0,0.,12.0,0.,12.0,0.,12.0,0.,12.0
1981-08-25 18:08:42.450 ,1,0,0.,12.0,0.,12.0,0.,12.0,0.,12.0
1981-08-25 18:08:54.450 ,0,0,0.,12.0,0.,12.0,0.,12.0,0.,12.0
1981-08-25 18:09:06.450 ,0,0,0.,12.0,0.,12.0,0.,12.0,0.,12.0
1981-08-25 18:09:18.450 ,0,0,0.,12.0,0.,12.0,0.,12.0,0.,12.0
1981-08-25 18:09:30.450 ,0,0,0.,12.0,0.,12.0,0.,12.0,0.,12.0
1981-08-25 18:09:42.450 ,0,0,0.,12.0,0.,12.0,0.,12.0,0.,12.0
1981-08-25 18:09:54.450 ,0,0,0.,12.0,0.,12.0,0.,12.0,0.,12.0
1981-08-25 18:10:06.450 ,0,0,0.,12.0,0.,12.0,0.,12.0,0.,12.0
1981-08-25 18:10:18.450 ,0,0,0.,12.0,0.,12.0,0.,12.0,0.,12.0
1981-08-25 18:10:30.450 ,1,0,0.,12.0,0.,12.0,0.,12.0,0.,12.0
1981-08-25 18:10:42.450 ,1,0,0.,12.0,0.,12.0,0.,12.0,0.,12.0
1981-08-25 18:10:54.450 ,1,0,0.,12.0,0.,12.0,0.,12.0,0.,12.0
1981-08-25 18:11:06.450 ,1,0,0.,12.0,0.,12.0,0.,12.0,0.,12.0
1981-08-25 18:11:18.450 ,2,0,0.,12.0,0.,12.0,0.,12.0,0.,12.0
1981-08-25 18:11:30.450 ,2,0,0.,12.0,0.,12.0,0.,12.0,0.,12.0
1981-08-25 18:11:42.450 ,2,0,0.,12.0,0.,12.0,0.,12.0,0.,12.0
1981-08-25 18:11:54.450 ,2,0,0.,12.0,0.,12.0,0.,12.0,0.,12.0
1981-08-25 18:12:06.450 ,3,0,0.,12.0,0.,12.0,0.,12.0,0.,12.0
1981-08-25 18:12:18.450 ,3,0,0.,12.0,0.,12.0,0.,12.0,0.,12.0
1981-08-25 18:12:30.450 ,3,0,0.,12.0,0.,12.0,0.,12.0,0.,12.0
1981-08-25 18:12:42.450 ,3,0,0.,12.0,0.,12.0,0.,12.0,0.,12.0
1981-08-25 18:12:54.450 ,4,0,0.,12.0,0.,12.0,0.,12.0,0.,12.0
1981-08-25 18:13:06.450 ,4,0,0.,12.0,0.,12.0,0.,12.0,0.,12.0
1981-08-25 18:13:18.450 ,4,0,0.,12.0,0.,12.0,0.,12.0,0.,12.0
1981-08-25 18:13:30.450 ,4,0,0.,12.0,0.,12.0,0.,12.0,0.,12.0
1981-08-25 18:13:42.450 ,5,0,0.,12.0,0.,12.0,0.,12.0,0.,12.0
1981-08-25 18:13:54.450 ,5,0,0.,12.0,0.,12.0,0.,12.0,0.,12.0
1981-08-25 18:14:06.450 ,5,0,0.,12.0,0.,12.0,0.,12.0,0.,12.0
1981-08-25 18:14:18.450 ,5,0,0.,12.0,0.,12.0,0.,12.0,0.,12.0
1981-08-25 18:14:30.450 ,6,0,0.,12.0,0.,12.0,0.,12.0,0.,12.0
1981-08-25 18:14:42.450 ,6,0,0.,12.0,0.,12.0,0.,12.0,0.,12.0
1981-08-25 18:14:54.450 ,6,0,0.,12.0,0.,12.0,0.,12.0,0.,12.0
1981-08-25 18:15:06.450 ,6,0,0.,12.0,0.,12.0,0.,12.0,0.,12.0
1981-08-25 18:15:18.450 ,7,0,0.,12.0,0.,12.0,0.,12.0,0.,12.0
1981-08-25 18:15:30.450 ,7,0,0.,12.0,0.,12.0,0.,12.0,0.,12.0
1981-08-25 18:15:42.450 ,7,0,0.,12.0,0.,12.0,0.,12.0,0.,12.0
1981-08-25 18:15:54.450 ,7,0,0.,12.0,0.,12.0,0.,12.0,0.,12.0
1981-08-25 18:16:06.450 ,7,0,0.,12.0,0.,12.0,0.,12.0,0.,12.0
1981-08-25 18:16:18.450 ,7,0,0.,12.0,0.,12.0,0.,12.0,0.,12.0
1981-08-25 18:16:30.450 ,7,0,0.,12.0,0.,12.0,0.,12.0,0.,12.0
1981-08-25 18:16:42.450 ,7,0,0.,12.0,0.,12.0,0.,12.0,0.,12.0
1981-08-25 18:16:54.450 ,6,0,0.,12.0,0.,12.0,0.,12.0,0.,12.0
1981-08-25 18:17:06.450 ,6,0,0.,12.0,0.,12.0,0.,12.0,0.,12.0
1981-08-25 18:17:18.440 ,6,0,0.,12.0,0.,12.0,0.,12.0,0.,12.0
1981-08-25 18:17:30.440 ,6,0,0.,12.0,0.,12.0,0.,12.0,0.,12.0
1981-08-25 18:17:42.440 ,5,0,0.,12.0,0.,12.0,0.,12.0,0.,12.0
1981-08-25 18:17:54.440 ,5,0,0.,12.0,0.,12.0,0.,12.0,0.,12.0
1981-08-25 18:18:06.440 ,5,0,0.,12.0,0.,12.0,0.,12.0,0.,12.0
1981-08-25 18:18:18.440 ,5,0,0.,12.0,0.,12.0,0.,12.0,0.,12.0
1981-08-25 18:18:30.440 ,4,0,0.,12.0,0.,12.0,0.,12.0,0.,12.0
1981-08-25 18:18:42.440 ,4,0,0.,12.0,0.,12.0,0.,12.0,0.,12.0
1981-08-25 18:18:54.440 ,4,0,0.,12.0,0.,12.0,0.,12.0,0.,12.0
1981-08-25 18:19:06.440 ,4,0,0.,12.0,0.,12.0,0.,12.0,0.,12.0
1981-08-25 18:19:18.440 ,3,0,0.,12.0,0.,12.0,0.,12.0,0.,12.0
1981-08-25 18:19:30.440 ,3,0,0.,12.0,0.,12.0,0.,12.0,0.,12.0
1981-08-25 18:19:42.440 ,3,0,0.,12.0,0.,12.0,0.,12.0,0.,12.0
1981-08-25 18:19:54.440 ,3,0,0.,12.0,0.,12.0,0.,12.0,0.,12.0
1981-08-25 18:20:06.440 ,2,0,0.,12.0,0.,12.0,0.,12.0,0.,12.0
1981-08-25 18:20:18.440 ,2,0,0.,12.0,0.,12.0,0.,12.0,0.,12.0
1981-08-25 18:20:30.440 ,2,0,0.,12.0,0.,12.0,0.,12.0,0.,12.0
1981-08-25 18:20:42.440 ,2,0,0.,12.0,0.,12.0,0.,12.0,0.,12.0
1981-08-25 18:20:54.440 ,1,0,0.,12.0,0.,12.0,0.,12.0,0.,12.0
1981-08-25 18:21:06.440 ,1,0,0.,12.0,0.,12.0,0.,12.0,0.,12.0
1981-08-25 18:21:18.440 ,1,0,0.,12.0,0.,12.0,0.,12.0,0.,12.0
1981-08-25 18:21:30.440 ,1,0,0.,12.0,0.,12.0,0.,12.0,0.,12.0
1981-08-25 18:21:42.440 ,0,0,0.,12.0,0.,12.0,0.,12.0,0.,12.0
1981-08-25 18:21:54.440 ,0,0,0.,12.0,0.,12.0,0.,12.0,0.,12.0
1981-08-25 18:22:06.440 ,0,0,0.,12.0,0.,12.0,0.,12.0,0.,12.0
1981-08-25 18:22:18.440 ,0,0,0.,12.0,0.,12.0,0.,12.0,0.,12.0
1981-08-25 18:22:30.440 ,0,0,0.,12.0,0.,12.0,0.,12.0,0.,12.0
1981-08-25 18:22:42.440 ,0,0,0.,12.0,0.,12.0,0.,12.0,0.,12.0
1981-08-25 18:22:54.440 ,0,0,0.,12.0,0.,12.0,0.,12.0,0.,12.0
1981-08-25 18:23:06.440 ,0,0,0.,12.0,0.,12.0,0.,12.0,0.,12.0
1981-08-25 18:23:18.440 ,1,0,0.,12.0,0.,12.0,0.,12.0,0.,12.0
1981-08-25 18:23:30.440 ,1,0,0.,12.0,0.,12.0,0.,12.0,0.,12.0
1981-08-25 18:23:42.440 ,1,0,0.,12.0,0.,12.0,0.,12.0,0.,12.0
1981-08-25 18:23:54.440 ,1,0,0.,12.0,0.,12.0,0.,12.0,0.,12.0
1981-08-25 18:24:06.440 ,2,0,0.,12.0,0.,12.0,0.,12.0,0.,12.0
1981-08-25 18:24:18.440 ,2,0,0.,12.0,0.,12.0,0.,12.0,0.,12.0
1981-08-25 18:24:30.440 ,2,0,0.,12.0,0.,12.0,0.,12.0,0.,12.0
1981-08-25 18:24:42.440 ,2,0,0.,12.0,0.,12.0,0.,12.0,0.,12.0
1981-08-25 18:24:54.440 ,3,0,0.,12.0,0.,12.0,0.,12.0,0.,12.0
1981-08-25 18:25:06.440 ,3,0,0.,12.0,0.,12.0,0.,12.0,0.,12.0
1981-08-25 18:25:18.440 ,3,0,0.,12.0,0.,12.0,0.,12.0,0.,12.0
1981-08-25 18:25:30.440 ,3,0,0.,12.0,0.,12.0,0.,12.0,0.,12.0
1981-08-25 18:25:42.440 ,4,0,0.,12.0,0.,12.0,0.,12.0,0.,12.0
1981-08-25 18:25:54.440 ,4,0,0.,12.0,0.,12.0,0.,12.0,0.,12.0
1981-08-25 18:26:06.440 ,4,0,0.,12.0,0.,12.0,0.,12.0,0.,12.0
1981-08-25 18:26:18.440 ,4,0,0.,12.0,0.,12.0,0.,12.0,0.,12.0
1981-08-25 18:26:30.440 ,5,0,0.,12.0,0.,12.0,0.,12.0,0.,12.0
1981-08-25 18:26:42.440 ,5,0,0.,12.0,0.,12.0,0.,12.0,0.,12.0
1981-08-25 18:26:54.440 ,5,0,0.,12.0,0.,12.0,0.,12.0,0.,12.0
1981-08-25 18:27:06.440 ,5,0,0.,12.0,0.,12.0,0.,12.0,0.,12.0
1981-08-25 18:27:18.440 ,6,0,0.,12.0,0.,12.0,0.,12.0,0.,12.0
1981-08-25 18:27:30.440 ,6,0,0.,12.0,0.,12.0,0.,12.0,0.,12.0
1981-08-25 18:27:42.440 ,6,0,0.,12.0,0.,12.0,0.,12.0,0.,12.0
1981-08-25 18:27:54.440 ,6,0,0.,12.0,0.,12.0,0.,12.0,0.,12.0
1981-08-25 18:28:06.440 ,7,0,0.,12.0,0.,12.0,0.,12.0,0.,12.0
1981-08-25 18:28:18.440 ,7,0,0.,12.0,0.,12.0,0.,12.0,0.,12.0
1981-08-25 18:28:30.440 ,7,0,0.,12.0,0.,12.0,0.,12.0,0.,12.0
1981-08-25 18:28:42.440 ,7,0,0.,12.0,0.,12.0,0.,12.0,0.,12.0
1981-08-25 18:28:54.440 ,7,0,0.,12.0,0.,12.0,0.,12.0,0.,12.0
1981-08-25 18:29:06.440 ,7,0,0.,12.0,0.,12.0,0.,12.0,0.,12.0
1981-08-25 18:29:18.440 ,7,0,0.,12.0,0.,12.0,0.,12.0,0.,12.0
1981-08-25 18:29:30.440 ,7,0,0.,12.0,0.,12.0,0.,12.0,0.,12.0
1981-08-25 18:29:42.440 ,6,0,0.,12.0,0.,12.0,0.,12.0,0.,12.0
1981-08-25 18:29:54.440 ,6,0,0.,12.0,0.,12.0,0.,12.0,0.,12.0
1981-08-25 18:30:06.440 ,6,0,0.,12.0,0.,12.0,0.,12.0,0.,12.0
1981-08-25 18:30:18.440 ,6,0,0.,12.0,0.,12.0,0.,12.0,0.,12.0
1981-08-25 18:30:30.440 ,5,0,0.,12.0,0.,12.0,0.,12.0,0.,12.0
1981-08-25 18:30:42.440 ,5,0,0.,12.0,0.,12.0,0.,12.0,0.,12.0
1981-08-25 18:30:54.440 ,5,0,0.,12.0,0.,12.0,0.,12.0,0.,12.0
1981-08-25 18:31:06.440 ,5,0,0.,12.0,0.,12.0,0.,12.0,0.,12.0
1981-08-25 18:31:18.440 ,0,0,0.,12.0,0.,12.0,0.,12.0,0.,12.0
1981-08-25 18:31:30.440 ,0,0,,0,,0,,0,,0
1981-08-25 18:31:42.440 ,0,0,0.,12.0,0.,12.0,0.,12.0,0.,12.0
1981-08-25 18:31:54.440 ,0,0,0.,12.0,0.,12.0,0.,12.0,0.,12.0
1981-08-25 18:32:06.440 ,3,0,0.,12.0,0.,12.0,0.,12.0,0.,12.0
1981-08-25 18:32:18.440 ,3,0,0.,12.0,0.,12.0,0.,12.0,0.,12.0
1981-08-25 18:32:30.440 ,3,0,0.,12.0,0.,12.0,0.,12.0,0.,12.0
1981-08-25 18:32:42.440 ,3,0,0.,12.0,0.,12.0,0.,12.0,0.,12.0
1981-08-25 18:32:54.440 ,2,0,0.,12.0,0.,12.0,0.,12.0,0.,12.0
1981-08-25 18:33:06.440 ,2,0,0.,12.0,0.,12.0,0.,12.0,0.,12.0
1981-08-25 18:33:18.440 ,2,0,0.,12.0,0.,12.0,0.,12.0,0.,12.0
1981-08-25 18:33:30.440 ,2,0,0.,12.0,0.,12.0,0.,12.0,0.,12.0
1981-08-25 18:33:42.440 ,1,0,0.,12.0,0.,12.0,0.,12.0,0.,12.0
1981-08-25 18:33:54.440 ,1,0,0.,12.0,0.,12.0,0.,12.0,0.,12.0
1981-08-25 18:34:06.440 ,1,0,0.,12.0,0.,12.0,0.,12.0,0.,12.0
1981-08-25 18:34:18.440 ,1,0,0.,12.0,0.,12.0,0.,12.0,0.,12.0
1981-08-25 18:34:30.440 ,0,0,0.,12.0,0.,12.0,0.,12.0,0.,12.0
1981-08-25 18:34:42.440 ,0,0,0.,12.0,0.,12.0,0.,12.0,0.,12.0
1981-08-25 18:34:54.440 ,0,0,0.,12.0,0.,12.0,0.,12.0,0.,12.0
1981-08-25 18:35:06.440 ,0,0,0.,12.0,0.,12.0,0.,12.0,0.,12.0
1981-08-25 18:35:18.440 ,0,0,0.,12.0,0.,12.0,0.,12.0,0.,12.0
1981-08-25 18:35:30.440 ,0,0,0.,12.0,0.,12.0,0.,12.0,0.,12.0
1981-08-25 18:35:42.440 ,0,0,0.,12.0,0.,12.0,0.,12.0,0.,12.0
1981-08-25 18:35:54.440 ,0,0,0.,12.0,0.,12.0,0.,12.0,0.,12.0
1981-08-25 18:36:06.440 ,1,0,0.,12.0,0.,12.0,0.,12.0,0.,12.0
1981-08-25 18:36:18.440 ,1,0,0.,12.0,0.,12.0,0.,12.0,0.,12.0
1981-08-25 18:36:30.440 ,1,0,0.,12.0,0.,12.0,0.,12.0,0.,12.0
1981-08-25 18:36:42.440 ,1,0,0.,12.0,0.,12.0,0.,12.0,0.,12.0
1981-08-25 18:36:54.440 ,2,0,0.,12.0,0.,12.0,0.,12.0,0.,12.0
1981-08-25 18:37:06.440 ,2,0,0.,12.0,0.,12.0,0.,12.0,0.,12.0
1981-08-25 18:37:18.440 ,2,0,0.,12.0,0.,12.0,0.,12.0,0.,12.0
1981-08-25 18:37:30.440 ,2,0,0.,12.0,0.,12.0,0.,12.0,0.,12.0
1981-08-25 18:37:42.440 ,3,0,0.,12.0,0.,12.0,0.,12.0,0.,12.0
1981-08-25 18:37:54.440 ,3,0,0.,12.0,0.,12.0,0.,12.0,0.,12.0
1981-08-25 18:38:06.440 ,3,0,0.,12.0,0.,12.0,0.,12.0,0.,12.0
1981-08-25 18:38:18.440 ,3,0,0.,12.0,0.,12.0,0.,12.0,0.,12.0
1981-08-25 18:38:30.440 ,4,0,0.,12.0,0.,12.0,0.,12.0,0.,12.0
1981-08-25 18:38:42.440 ,4,0,0.,12.0,0.,12.0,0.,12.0,0.,12.0
1981-08-25 18:38:54.440 ,4,0,0.,12.0,0.,12.0,0.,12.0,0.,12.0
1981-08-25 18:39:06.440 ,4,0,0.,12.0,0.,12.0,0.,12.0,0.,12.0
1981-08-25 18:39:18.440 ,5,0,0.,12.0,0.,12.0,0.,12.0,0.,12.0
1981-08-25 18:39:30.440 ,5,0,0.,12.0,0.,12.0,0.,12.0,0.,12.0
1981-08-25 18:39:42.440 ,5,0,0.,12.0,0.,12.0,0.,12.0,0.,12.0
1981-08-25 18:39:54.440 ,5,0,0.,12.0,0.,12.0,0.,12.0,0.,12.0
1981-08-25 18:40:06.440 ,6,0,0.,12.0,0.,12.0,0.,12.0,0.,12.0
1981-08-25 18:40:18.440 ,6,0,0.,12.0,0.,12.0,0.,12.0,0.,12.0
1981-08-25 18:40:30.440 ,6,0,0.,12.0,0.,12.0,0.,12.0,0.,12.0
1981-08-25 18:40:42.440 ,6,0,0.,12.0,0.,12.0,0.,12.0,0.,12.0
1981-08-25 18:40:54.440 ,7,0,0.,12.0,0.,12.0,0.,12.0,0.,12.0
1981-08-25 18:41:06.440 ,7,0,0.,12.0,0.,12.0,0.,12.0,0.,12.0
1981-08-25 18:41:18.440 ,7,0,0.,12.0,0.,12.0,0.,12.0,0.,12.0
1981-08-25 18:41:30.440 ,7,0,0.,12.0,0.,12.0,0.,12.0,0.,12.0
1981-08-25 18:42:30.440 ,0,0,0.,12.0,0.,12.0,0.,12.0,0.,12.0
1981-08-25 18:42:42.440 ,0,0,0.,12.0,0.,12.0,0.,12.0,0.,12.0
1981-08-25 18:42:54.440 ,0,0,0.,12.0,0.,12.0,0.,12.0,0.,12.0
1981-08-25 18:43:06.440 ,0,0,0.,12.0,0.,12.0,0.,12.0,0.,12.0
1981-08-25 18:43:18.440 ,5,0,0.,12.0,0.,12.0,0.,12.0,0.,12.0
1981-08-25 18:43:30.440 ,5,0,0.,12.0,0.,12.0,0.,12.0,0.,12.0
1981-08-25 18:43:42.440 ,5,0,0.,12.0,0.,12.0,0.,12.0,0.,12.0
1981-08-25 18:43:54.440 ,5,0,0.,12.0,0.,12.0,0.,12.0,0.,12.0
1981-08-25 18:44:06.440 ,4,0,0.,12.0,0.,12.0,0.,12.0,0.,12.0
1981-08-25 18:44:18.440 ,4,0,0.,12.0,0.,12.0,0.,12.0,0.,12.0
1981-08-25 18:44:30.440 ,4,0,0.,12.0,0.,12.0,0.,12.0,0.,12.0
1981-08-25 18:44:42.440 ,4,0,0.,12.0,0.,12.0,0.,12.0,0.,12.0
1981-08-25 18:44:54.440 ,3,0,0.,12.0,0.,12.0,0.,12.0,0.,12.0
1981-08-25 18:45:06.440 ,3,0,0.,12.0,0.,12.0,0.,12.0,0.,12.0
1981-08-25 18:45:18.440 ,3,0,0.,12.0,0.,12.0,0.,12.0,0.,12.0
1981-08-25 18:45:30.440 ,3,0,0.,12.0,0.,12.0,0.,12.0,0.,12.0
1981-08-25 18:45:42.440 ,2,0,0.,12.0,0.,12.0,0.,12.0,0.,12.0
1981-08-25 18:45:54.440 ,2,0,0.,12.0,0.,12.0,0.,12.0,0.,12.0
1981-08-25 18:46:06.440 ,2,0,0.,12.0,0.,12.0,0.,12.0,0.,12.0
1981-08-25 18:46:18.440 ,2,0,0.,12.0,0.,12.0,0.,12.0,0.,12.0
1981-08-25 18:46:30.440 ,1,0,0.,12.0,0.,12.0,0.,12.0,0.,12.0
1981-08-25 18:46:42.440 ,1,0,0.,12.0,0.,12.0,0.,12.0,0.,12.0
1981-08-25 18:46:54.440 ,1,0,0.,12.0,0.,12.0,0.,12.0,0.,12.0
1981-08-25 18:47:06.440 ,1,0,0.,12.0,0.,12.0,0.,12.0,0.,12.0
1981-08-25 18:47:18.440 ,0,0,0.,12.0,0.,12.0,0.,12.0,0.,12.0
1981-08-25 18:47:30.440 ,0,0,0.,12.0,0.,12.0,0.,12.0,0.,12.0
1981-08-25 18:47:42.440 ,0,0,0.,12.0,0.,12.0,0.,12.0,0.,12.0
1981-08-25 18:47:54.440 ,0,0,0.,12.0,0.,12.0,0.,12.0,0.,12.0
1981-08-25 18:48:06.440 ,0,0,0.,12.0,0.,12.0,0.,12.0,0.,12.0
1981-08-25 18:48:18.440 ,0,0,0.,12.0,0.,12.0,0.,12.0,0.,12.0
1981-08-25 18:48:30.440 ,0,0,0.,12.0,0.,12.0,0.,12.0,0.,12.0
1981-08-25 18:48:42.440 ,0,0,0.,12.0,0.,12.0,0.,12.0,0.,12.0
1981-08-25 18:48:54.440 ,1,0,0.,12.0,0.,12.0,0.,12.0,0.,12.0
1981-08-25 18:49:06.440 ,1,0,0.,12.0,0.,12.0,0.,12.0,0.,12.0
1981-08-25 18:49:18.440 ,1,0,0.,12.0,0.,12.0,0.,12.0,0.,12.0
1981-08-25 18:49:30.440 ,1,0,0.,12.0,0.,12.0,0.,12.0,0.,12.0
1981-08-25 18:49:42.440 ,2,0,0.,12.0,0.,12.0,0.,12.0,0.,12.0
1981-08-25 18:49:54.440 ,2,0,0.,12.0,0.,12.0,0.,12.0,0.,12.0
1981-08-25 18:50:06.440 ,2,0,0.,12.0,0.,12.0,0.,12.0,0.,12.0
1981-08-25 18:50:18.440 ,2,0,0.,12.0,0.,12.0,0.,12.0,0.,12.0
1981-08-25 18:50:30.440 ,3,0,0.,12.0,0.,12.0,0.,12.0,0.,12.0
1981-08-25 18:50:42.440 ,3,0,0.,12.0,0.,12.0,0.,12.0,0.,12.0
1981-08-25 18:50:54.440 ,3,0,0.,12.0,0.,12.0,0.,12.0,0.,12.0
1981-08-25 18:51:06.440 ,3,0,0.,12.0,0.,12.0,0.,12.0,0.,12.0
1981-08-25 18:51:18.440 ,4,0,0.,12.0,0.,12.0,0.,12.0,0.,12.0
1981-08-25 18:51:30.440 ,4,0,0.,12.0,0.,12.0,0.,12.0,0.,12.0
1981-08-25 18:51:42.440 ,4,0,0.,12.0,0.,12.0,0.,12.0,0.,12.0
1981-08-25 18:51:54.440 ,4,0,0.,12.0,0.,12.0,0.,12.0,0.,12.0
1981-08-25 18:52:06.440 ,5,0,0.,12.0,0.,12.0,0.,12.0,0.,12.0
1981-08-25 18:52:18.440 ,5,0,0.,12.0,0.,12.0,0.,12.0,0.,12.0
1981-08-25 18:52:30.440 ,5,0,0.,12.0,0.,12.0,0.,12.0,0.,12.0
1981-08-25 18:52:42.440 ,5,0,0.,12.0,0.,12.0,0.,12.0,0.,12.0
1981-08-25 18:52:54.440 ,6,0,0.,12.0,0.,12.0,0.,12.0,0.,12.0
1981-08-25 18:53:06.440 ,6,0,0.,12.0,0.,12.0,0.,12.0,0.,12.0
1981-08-25 18:53:18.440 ,6,0,0.,12.0,0.,12.0,0.,12.0,0.,12.0
1981-08-25 18:53:30.440 ,6,0,0.,12.0,0.,12.0,0.,12.0,0.,12.0
1981-08-25 18:53:42.440 ,7,0,0.,12.0,0.,12.0,0.,12.0,0.,12.0
1981-08-25 18:53:54.440 ,7,0,0.,12.0,0.,12.0,0.,12.0,0.,12.0
1981-08-25 18:54:06.440 ,7,0,0.,12.0,0.,12.0,0.,12.0,0.,12.0
1981-08-25 18:54:18.440 ,7,0,0.,12.0,0.,12.0,0.,12.0,0.,12.0
1981-08-25 18:54:30.440 ,7,0,0.,12.0,0.,12.0,0.,12.0,0.,12.0
1981-08-25 18:54:42.440 ,7,0,0.,12.0,0.,12.0,0.,12.0,0.,12.0
1981-08-25 18:54:54.440 ,7,0,0.,12.0,0.,12.0,0.,12.0,0.,12.0
1981-08-25 18:55:06.440 ,7,0,0.,12.0,0.,12.0,0.,12.0,0.,12.0
1981-08-25 18:55:18.440 ,6,0,0.,12.0,0.,12.0,0.,12.0,0.,12.0
1981-08-25 18:55:30.440 ,6,0,0.,12.0,0.,12.0,0.,12.0,0.,12.0
1981-08-25 18:55:42.440 ,6,0,0.,12.0,0.,12.0,0.,12.0,0.,12.0
1981-08-25 18:55:54.440 ,6,0,0.,12.0,0.,12.0,0.,12.0,0.,12.0
1981-08-25 18:56:06.440 ,5,0,0.,12.0,0.,12.0,0.,12.0,0.,12.0
1981-08-25 18:56:18.440 ,5,0,0.,12.0,0.,12.0,0.,12.0,0.,12.0
1981-08-25 18:56:30.440 ,5,0,0.,12.0,0.,12.0,0.,12.0,0.,12.0
1981-08-25 18:56:42.440 ,5,0,0.,12.0,0.,12.0,0.,12.0,0.,12.0
1981-08-25 18:56:54.440 ,4,0,0.,12.0,0.,12.0,0.,12.0,0.,12.0
1981-08-25 18:57:06.440 ,4,0,0.,12.0,0.,12.0,0.,12.0,0.,12.0
1981-08-25 18:57:18.440 ,4,0,0.,12.0,0.,12.0,0.,12.0,0.,12.0
1981-08-25 18:57:30.440 ,4,0,0.,12.0,0.,12.0,0.,12.0,0.,12.0
1981-08-25 18:57:42.440 ,3,0,0.,12.0,0.,12.0,0.,12.0,0.,12.0
1981-08-25 18:57:54.440 ,3,0,0.,12.0,0.,12.0,0.,12.0,0.,12.0
1981-08-25 18:58:06.440 ,3,0,0.,12.0,0.,12.0,0.,12.0,0.,12.0
1981-08-25 18:58:18.440 ,3,0,0.,12.0,0.,12.0,0.,12.0,0.,12.0
1981-08-25 18:58:30.440 ,2,0,0.,12.0,0.,12.0,0.,12.0,0.,12.0
1981-08-25 18:58:42.440 ,2,0,0.,12.0,0.,12.0,0.,12.0,0.,12.0
1981-08-25 18:58:54.440 ,2,0,0.,12.0,0.,12.0,0.,12.0,0.,12.0
1981-08-25 18:59:06.440 ,2,0,0.,12.0,0.,12.0,0.,12.0,0.,12.0
1981-08-25 18:59:18.440 ,1,0,0.,12.0,0.,12.0,0.,12.0,0.,12.0
1981-08-25 18:59:30.440 ,1,0,0.,12.0,0.,12.0,0.,12.0,0.,12.0
1981-08-25 18:59:42.440 ,1,0,0.,12.0,0.,12.0,0.,12.0,0.,12.0
1981-08-25 18:59:54.440 ,1,0,0.,12.0,0.,12.0,0.,12.0,0.,12.0
1981-08-25 19:00:06.440 ,0,0,0.,12.0,0.,12.0,0.,12.0,0.,12.0
1981-08-25 19:00:18.440 ,0,0,0.,12.0,0.,12.0,0.,12.0,0.,12.0
1981-08-25 19:00:30.440 ,0,0,0.,12.0,0.,12.0,0.,12.0,0.,12.0
1981-08-25 19:00:42.440 ,0,0,0.,12.0,0.,12.0,0.,12.0,0.,12.0
1981-08-25 19:00:54.440 ,0,0,0.,12.0,0.,12.0,0.,12.0,0.,12.0
1981-08-25 19:01:06.440 ,0,0,0.,12.0,0.,12.0,0.,12.0,0.,12.0
1981-08-25 19:01:18.440 ,0,0,0.,12.0,0.,12.0,0.,12.0,0.,12.0
1981-08-25 19:01:30.440 ,0,0,0.,12.0,0.,12.0,0.,12.0,0.,12.0
1981-08-25 19:01:42.440 ,1,0,0.,12.0,0.,12.0,0.,12.0,0.,12.0
1981-08-25 19:01:54.440 ,1,0,0.,12.0,0.,12.0,0.,12.0,0.,12.0
1981-08-25 19:02:06.440 ,1,0,0.,12.0,0.,12.0,0.,12.0,0.,12.0
1981-08-25 19:02:18.440 ,1,0,0.,12.0,0.,12.0,0.,12.0,0.,12.0
1981-08-25 19:02:30.440 ,2,0,0.,12.0,0.,12.0,0.,12.0,0.,12.0
1981-08-25 19:02:42.440 ,2,0,0.,12.0,0.,12.0,0.,12.0,0.,12.0
1981-08-25 19:02:54.440 ,2,0,0.,12.0,0.,12.0,0.,12.0,0.,12.0
1981-08-25 19:03:06.440 ,2,0,0.,12.0,0.,12.0,0.,12.0,0.,12.0
1981-08-25 19:03:18.440 ,3,0,0.,12.0,0.,12.0,0.,12.0,0.,12.0
1981-08-25 19:03:30.440 ,3,0,0.,12.0,0.,12.0,0.,12.0,0.,12.0
1981-08-25 19:03:42.440 ,3,0,0.,12.0,0.,12.0,0.,12.0,0.,12.0
1981-08-25 19:03:54.440 ,3,0,0.,12.0,0.,12.0,0.,12.0,0.,12.0
1981-08-25 19:04:06.440 ,4,0,0.,12.0,0.,12.0,0.,12.0,0.,12.0
1981-08-25 19:04:18.440 ,4,0,0.,12.0,0.,12.0,0.,12.0,0.,12.0
1981-08-25 19:04:30.440 ,4,0,0.,12.0,0.,12.0,0.,12.0,0.,12.0
1981-08-25 19:04:42.440 ,4,0,0.,12.0,0.,12.0,0.,12.0,0.,12.0
1981-08-25 19:04:54.440 ,5,0,0.,12.0,0.,12.0,0.,12.0,0.,12.0
1981-08-25 19:05:06.440 ,5,0,0.,12.0,0.,12.0,0.,12.0,0.,12.0
1981-08-25 19:05:18.440 ,5,0,0.,12.0,0.,12.0,0.,12.0,0.,12.0
1981-08-25 19:05:30.440 ,5,0,0.,12.0,0.,12.0,0.,12.0,0.,12.0
1981-08-25 19:05:42.440 ,6,0,0.,12.0,0.,12.0,0.,12.0,0.,12.0
1981-08-25 19:05:54.440 ,6,0,0.,12.0,0.,12.0,0.,12.0,0.,12.0
1981-08-25 19:06:06.440 ,6,0,0.,12.0,0.,12.0,0.,12.0,0.,12.0
1981-08-25 19:06:18.440 ,6,0,0.,12.0,0.,12.0,0.,12.0,0.,12.0
1981-08-25 19:06:30.440 ,7,0,0.,12.0,0.,12.0,0.,12.0,0.,12.0
1981-08-25 19:06:42.440 ,7,0,0.,12.0,0.,12.0,0.,12.0,0.,12.0
1981-08-25 19:06:54.440 ,7,0,0.,12.0,0.,12.0,0.,12.0,0.,12.0
1981-08-25 19:07:06.440 ,7,0,0.,12.0,0.,12.0,0.,12.0,0.,12.0
1981-08-25 19:07:18.440 ,7,0,0.,12.0,0.,12.0,0.,12.0,0.,12.0
1981-08-25 19:07:30.440 ,7,0,0.,12.0,0.,12.0,0.,12.0,0.,12.0
1981-08-25 19:07:42.440 ,7,0,0.,12.0,0.,12.0,0.,12.0,0.,12.0
1981-08-25 19:07:54.440 ,7,0,0.,12.0,0.,12.0,0.,12.0,0.,12.0
1981-08-25 19:08:06.440 ,6,0,0.,12.0,0.,12.0,0.,12.0,0.,12.0
1981-08-25 19:08:18.440 ,6,0,0.,12.0,0.,12.0,0.,12.0,0.,12.0
1981-08-25 19:08:30.440 ,6,0,0.,12.0,0.,12.0,0.,12.0,0.,12.0
1981-08-25 19:08:42.440 ,6,0,0.,12.0,0.,12.0,0.,12.0,0.,12.0
1981-08-25 19:08:54.440 ,5,0,0.,12.0,0.,12.0,0.,12.0,0.,12.0
1981-08-25 19:09:06.440 ,5,0,0.,12.0,0.,12.0,0.,12.0,0.,12.0
1981-08-25 19:09:18.440 ,5,0,0.,12.0,0.,12.0,0.,12.0,0.,12.0
1981-08-25 19:09:30.440 ,5,0,0.,12.0,0.,12.0,0.,12.0,0.,12.0
1981-08-25 19:09:42.440 ,4,0,0.,12.0,0.,12.0,0.,12.0,0.,12.0
1981-08-25 19:09:54.440 ,4,0,0.,12.0,0.,12.0,0.,12.0,0.,12.0
1981-08-25 19:10:06.440 ,4,0,0.,12.0,0.,12.0,0.,12.0,0.,12.0
1981-08-25 19:10:18.440 ,4,0,0.,12.0,0.,12.0,0.,12.0,0.,12.0
1981-08-25 19:10:30.440 ,3,0,0.,12.0,0.,12.0,0.,12.0,0.,12.0
1981-08-25 19:10:42.440 ,3,0,0.,12.0,0.,12.0,0.,12.0,0.,12.0
1981-08-25 19:10:54.440 ,3,0,0.,12.0,0.,12.0,0.,12.0,0.,12.0
1981-08-25 19:11:06.440 ,3,0,0.,12.0,0.,12.0,0.,12.0,0.,12.0
1981-08-25 19:11:18.440 ,2,0,0.,12.0,0.,12.0,0.,12.0,0.,12.0
1981-08-25 19:11:30.440 ,2,0,0.,12.0,0.,12.0,0.,12.0,0.,12.0
1981-08-25 19:11:42.440 ,2,0,0.,12.0,0.,12.0,0.,12.0,0.,12.0
1981-08-25 19:11:54.440 ,2,0,0.,12.0,0.,12.0,0.,12.0,0.,12.0
1981-08-25 19:12:06.440 ,1,0,0.,12.0,0.,12.0,0.,12.0,0.,12.0
1981-08-25 19:12:18.440 ,1,0,0.,12.0,0.,12.0,0.,12.0,0.,12.0
1981-08-25 19:12:30.440 ,1,0,0.,12.0,0.,12.0,0.,12.0,0.,12.0
1981-08-25 19:12:42.440 ,1,0,0.,12.0,0.,12.0,0.,12.0,0.,12.0
1981-08-25 19:12:54.440 ,0,0,0.,12.0,0.,12.0,0.,12.0,0.,12.0
1981-08-25 19:13:06.440 ,0,0,0.,12.0,0.,12.0,0.,12.0,0.,12.0
1981-08-25 19:13:18.440 ,0,0,0.,12.0,0.,12.0,0.,12.0,0.,12.0
1981-08-25 19:13:30.440 ,0,0,0.,12.0,0.,12.0,0.,12.0,0.,12.0
1981-08-25 19:13:42.440 ,0,0,0.,12.0,0.,12.0,0.,12.0,0.,12.0
1981-08-25 19:13:54.440 ,0,0,0.,12.0,0.,12.0,0.,12.0,0.,12.0
1981-08-25 19:14:06.440 ,0,0,0.,12.0,0.,12.0,0.,12.0,0.,12.0
1981-08-25 19:14:18.440 ,0,0,0.,12.0,0.,12.0,0.,12.0,0.,12.0
1981-08-25 19:14:30.440 ,1,0,0.,12.0,0.,12.0,0.,12.0,0.,12.0
1981-08-25 19:14:42.440 ,1,0,0.,12.0,0.,12.0,0.,12.0,0.,12.0
1981-08-25 19:14:54.440 ,1,0,0.,12.0,0.,12.0,0.,12.0,0.,12.0
1981-08-25 19:15:06.440 ,1,0,0.,12.0,0.,12.0,0.,12.0,0.,12.0
1981-08-25 19:15:18.440 ,2,0,0.,12.0,0.,12.0,0.,12.0,0.,12.0
1981-08-25 19:15:30.440 ,2,0,0.,12.0,0.,12.0,0.,12.0,0.,12.0
1981-08-25 19:15:42.440 ,2,0,0.,12.0,0.,12.0,0.,12.0,0.,12.0
1981-08-25 19:15:54.440 ,2,0,0.,12.0,0.,12.0,0.,12.0,0.,12.0
1981-08-25 19:16:06.440 ,3,0,0.,12.0,0.,12.0,0.,12.0,0.,12.0
1981-08-25 19:16:18.440 ,3,0,0.,12.0,0.,12.0,0.,12.0,0.,12.0
1981-08-25 19:16:30.440 ,3,0,0.,12.0,0.,12.0,0.,12.0,0.,12.0
1981-08-25 19:16:42.440 ,3,0,0.,12.0,0.,12.0,0.,12.0,0.,12.0
1981-08-25 19:16:54.440 ,4,0,0.,12.0,0.,12.0,0.,12.0,0.,12.0
1981-08-25 19:17:06.440 ,4,0,0.,12.0,0.,12.0,0.,12.0,0.,12.0
1981-08-25 19:17:18.440 ,4,0,0.,12.0,0.,12.0,0.,12.0,0.,12.0
1981-08-25 19:17:30.440 ,4,0,0.,12.0,0.,12.0,0.,12.0,0.,12.0
1981-08-25 19:17:42.440 ,5,0,0.,12.0,0.,12.0,0.,12.0,0.,12.0
1981-08-25 19:17:54.440 ,5,0,0.,12.0,0.,12.0,0.,12.0,0.,12.0
1981-08-25 19:18:06.440 ,5,0,0.,12.0,0.,12.0,0.,12.0,0.,12.0
1981-08-25 19:18:18.440 ,5,0,0.,12.0,0.,12.0,0.,12.0,0.,12.0
1981-08-25 19:18:30.440 ,6,0,0.,12.0,0.,12.0,0.,12.0,0.,12.0
1981-08-25 19:18:42.440 ,6,0,0.,12.0,0.,12.0,0.,12.0,0.,12.0